Wind_Speed
40 40 40 39 39 40 41 42 42 42 41 40 38 38 38 39 39 38 35 32 30 28 26 26 26 26 25 24 24 24 23 23 22 20 19 18 19 20 20 20 19 17 16
37 37 38 38 39 39 40 40 40 41 41 41 39 39 39 40 41 42 40 38 34 30 28 27 26 27 27 27 27 26 27 27 26 25 23 21 20 20 21 22 22 20 19
34 34 34 34 34 35 35 34 34 35 35 37 37 37 37 37 39 41 41 39 37 33 30 28 27 28 28 28 29 29 29 30 30 29 28 26 24 23 22 23 24 24 22
31 31 32 32 33 35 35 36 36 36 35 36 37 37 38 37 37 37 36 36 35 33 32 31 30 30 30 30 30 31 32 32 33 33 32 31 29 27 25 25 25 26 26
29 29 30 31 32 33 35 36 37 37 37 38 39 39 39 39 38 36 34 32 32 32 32 33 33 33 32 32 32 33 34 35 35 35 36 35 34 32 29 28 27 27 27
25 26 28 30 32 33 35 36 37 38 38 38 39 39 38 38 38 37 36 35 34 33 33 34 35 35 35 35 34 35 36 37 37 37 38 38 38 36 34 32 30 29 29
19 21 23 26 29 32 35 37 38 38 38 38 38 37 36 36 35 35 34 35 35 34 34 35 36 36 37 36 36 36 37 38 39 39 40 40 41 41 39 37 34 31 30
14 16 18 21 24 28 32 35 38 39 40 40 40 39 37 35 34 33 33 33 33 34 34 35 36 36 37 37 36 37 38 39 39 39 39 40 41 42 42 41 38 34 31
14 16 18 20 22 25 28 32 36 38 40 41 42 41 39 37 35 34 33 32 32 32 33 34 35 36 38 38 38 38 39 40 39 39 39 39 40 42 42 43 42 38 34
17 18 20 21 23 26 29 31 34 37 38 40 42 42 41 39 37 35 33 32 32 33 34 34 35 36 37 38 39 39 40 40 40 40 40 39 39 41 42 44 44 41 37
19 19 21 22 24 26 29 31 33 35 37 38 40 42 42 41 38 36 34 33 33 34 35 35 35 36 36 37 37 37 38 39 40 40 40 40 40 40 42 43 44 43 40
21 21 22 24 25 27 30 32 32 32 34 36 38 40 41 41 40 38 36 35 34 34 35 35 34 35 35 36 36 36 37 36 37 37 37 38 38 38 40 42 45 45 43
24 23 24 25 27 28 30 32 32 32 32 32 33 35 38 39 39 39 37 35 35 34 33 33 33 34 34 35 35 35 35 34 34 35 35 35 35 36 37 39 43 45 45
26 25 25 26 27 28 29 32 33 32 31 30 30 31 33 36 38 38 37 36 35 35 34 33 34 34 34 34 35 34 34 33 32 33 33 33 35 37 38 38 41 45 45
29 27 26 27 27 27 29 31 33 33 31 29 28 28 30 32 35 37 36 36 35 35 35 34 35 34 34 34 34 34 34 32 31 30 29 29 31 34 36 38 41 44 45
32 30 28 27 27 27 28 30 32 33 31 28 27 26 27 29 32 34 35 36 36 36 36 36 35 34 34 33 33 32 32 32 31 29 27 27 26 28 33 37 40 42 43
35 32 30 28 28 28 28 30 32 33 32 29 27 26 26 28 30 32 34 35 36 37 36 36 35 34 34 33 31 30 30 30 29 28 27 26 26 26 30 34 37 40 43
38 34 32 31 31 30 30 31 32 33 32 30 28 27 26 26 28 30 32 33 34 34 35 35 35 34 32 30 29 27 28 28 27 28 28 27 26 27 29 32 36 39 43
40 37 35 33 33 33 33 33 34 33 33 31 29 27 26 24 25 26 28 28 29 31 32 32 32 32 31 29 28 27 26 26 27 27 27 25 25 24 24 25 27 30 34
43 40 38 37 37 36 36 35 35 35 33 30 28 27 24 22 21 21 23 23 24 25 26 28 29 30 29 27 26 26 26 25 23 22 21 20 19 18 18 18 19 21 23
48 44 42 41 41 40 39 37 36 35 33 30 27 25 22 19 18 18 19 20 23 25 26 28 29 29 29 27 25 25 23 20 18 17 16 16 16 16 17 18 19 21 22
54 50 47 46 44 43 42 40 37 36 33 30 26 23 20 19 17 18 19 20 23 27 29 31 32 30 29 25 24 22 20 18 16 16 15 15 16 17 19 20 22 23 24
62 57 54 51 49 46 44 41 37 35 33 30 26 23 20 19 18 18 19 21 23 25 29 32 32 29 26 23 21 19 18 17 16 15 15 16 17 18 19 20 21 23 24
67 62 56 52 49 47 44 40 38 36 33 30 27 24 21 20 19 19 20 21 23 25 27 29 28 24 21 19 18 18 17 16 15 15 15 15 16 17 18 19 21 22 24
65 62 58 53 49 47 44 40 39 37 34 31 29 25 23 21 20 20 20 21 22 23 24 23 21 20 19 18 17 16 15 14 13 13 13 14 15 15 16 18 20 21 23
58 56 54 51 48 45 43 41 39 38 35 32 30 27 24 22 21 20 20 21 21 21 21 20 19 18 18 17 16 14 13 12 11 11 11 12 12 13 14 15 17 19 21
Wind_Direction
277 276 276 274 273 273 274 274 275 273 269 268 268 270 271 270 267 264 261 259 259 257 254 253 253 254 255 256 256 256 255 253 251 249 246 244 243 242 241 240 239 238 238
280 280 279 277 276 275 274 276 278 277 271 268 267 270 271 273 271 267 264 261 257 256 256 256 254 254 255 257 259 259 257 255 253 250 248 245 243 242 242 241 239 238 238
283 283 283 284 283 282 280 280 283 283 280 277 273 273 274 274 275 270 267 264 258 254 254 255 256 255 255 257 258 258 259 257 255 251 248 245 244 242 242 241 239 238 238
284 285 286 287 286 285 284 284 284 283 280 276 273 273 272 275 276 272 269 266 260 256 253 255 258 258 257 257 257 257 257 257 255 252 249 246 244 242 242 241 240 238 237
286 286 288 288 288 287 286 285 283 282 279 276 273 272 272 272 274 274 276 272 266 261 259 258 258 259 257 256 257 257 257 256 255 253 250 246 244 243 242 241 241 240 238
289 290 291 291 289 288 287 285 283 281 279 277 275 274 273 273 275 275 273 271 268 265 261 260 260 259 259 259 257 257 257 256 254 252 250 248 245 242 241 241 241 241 240
298 298 297 295 291 288 285 283 280 278 277 277 276 275 275 275 276 275 272 268 265 262 260 261 261 260 261 261 259 258 258 257 254 252 251 249 247 243 241 241 241 242 242
307 308 308 306 302 296 290 285 280 277 274 273 273 273 273 274 275 274 271 268 264 259 259 260 260 260 261 261 260 260 260 260 257 253 253 252 249 246 243 240 240 240 242
306 311 315 316 316 312 304 295 287 281 275 272 271 270 270 270 270 271 271 268 263 259 259 260 261 260 261 262 262 261 261 261 258 256 255 254 251 247 245 240 237 238 240
306 313 318 321 323 322 317 307 296 287 280 275 271 269 269 269 267 267 267 265 263 261 261 261 261 261 261 263 263 263 261 260 259 257 256 255 252 249 247 242 236 235 237
303 311 317 319 322 324 324 316 303 291 283 277 273 270 267 267 266 264 264 263 262 262 262 263 262 262 262 262 262 262 261 260 259 257 255 255 254 251 247 244 236 233 234
298 306 311 315 318 323 325 323 315 301 290 280 274 270 268 265 264 262 261 262 263 263 264 265 264 263 262 261 261 261 261 260 259 256 255 254 255 254 248 244 235 231 232
291 299 305 309 313 319 325 327 323 314 302 289 278 271 267 264 261 260 259 260 262 263 264 264 264 264 263 261 260 261 260 259 258 256 255 255 256 252 248 243 234 230 231
288 293 299 303 307 312 320 327 327 320 311 299 286 275 268 263 259 257 257 259 261 263 263 262 263 264 262 260 258 259 257 256 256 256 256 258 258 252 245 239 231 228 229
287 290 294 298 300 307 315 322 326 323 316 307 294 282 272 264 259 256 256 258 260 260 261 261 261 261 259 257 256 254 252 253 255 256 258 259 259 254 244 237 231 227 227
285 287 290 292 296 302 311 319 323 323 319 312 302 290 278 268 261 256 256 257 257 257 258 259 258 256 254 253 251 250 248 247 251 255 257 260 261 257 247 235 229 227 226
280 282 285 289 292 298 306 313 319 321 318 313 306 296 283 272 263 258 256 255 255 256 256 255 254 251 249 249 247 246 244 246 250 255 259 260 259 255 248 240 236 233 231
277 278 281 285 288 293 300 308 313 316 315 313 307 300 290 276 265 258 254 254 254 253 252 251 249 245 243 241 239 241 243 247 252 256 258 258 258 255 250 246 243 240 239
275 275 278 282 285 289 295 302 307 310 310 309 306 302 295 282 268 258 253 251 250 249 247 244 242 240 237 234 234 239 244 249 255 256 256 256 255 251 249 249 248 247 246
270 272 275 279 282 286 291 297 301 303 303 303 302 300 296 286 271 258 251 247 246 243 239 237 235 235 229 229 233 243 247 250 252 254 252 251 248 246 246 249 250 252 253
265 267 271 276 279 282 287 292 295 295 296 296 297 297 293 285 272 261 254 249 247 241 235 233 232 233 229 229 235 242 245 244 245 244 244 244 244 246 248 251 253 254 255
267 268 271 274 276 279 282 286 287 287 287 287 289 290 288 280 269 261 252 248 248 240 233 230 229 228 229 230 233 235 236 235 236 239 242 246 248 249 250 251 253 255 257
271 270 270 270 272 274 276 278 278 277 277 277 278 280 278 276 268 263 256 252 249 243 236 230 225 225 226 225 225 227 231 234 236 240 243 247 249 251 254 257 261 265 267
269 268 266 265 265 267 268 269 269 268 267 267 268 269 269 266 262 259 255 252 247 244 238 229 222 218 215 215 219 223 226 229 233 237 242 249 253 258 263 269 272 275 277
264 262 260 258 257 257 258 259 259 259 258 257 258 259 260 259 256 253 251 248 243 237 230 223 216 212 210 210 212 216 220 225 231 238 244 252 259 266 272 277 280 282 283
253 250 248 245 244 244 246 247 249 249 249 249 250 251 252 252 249 247 244 241 236 229 223 217 211 207 203 203 205 210 217 227 236 244 252 261 268 275 281 285 288 289 290
Height
5877 5876 5875 5873 5872 5871 5869 5868 5866 5866 5865 5865 5865 5865 5864 5863 5863 5863 5864 5864 5865 5866 5868 5869 5870 5870 5871 5872 5873 5874 5875 5876 5877 5877 5877 5878 5878 5879 5880 5881 5881 5881 5881
5868 5867 5865 5864 5863 5862 5860 5859 5858 5856 5855 5855 5856 5856 5855 5855 5855 5855 5855 5855 5856 5858 5860 5862 5863 5864 5865 5866 5867 5868 5869 5871 5872 5873 5874 5874 5874 5875 5876 5877 5877 5878 5878
5860 5859 5857 5856 5855 5854 5853 5851 5850 5848 5847 5847 5847 5847 5847 5846 5846 5846 5846 5846 5848 5850 5852 5854 5855 5857 5858 5859 5860 5861 5862 5864 5865 5867 5868 5869 5870 5870 5871 5872 5873 5873 5874
5853 5852 5851 5850 5848 5847 5845 5844 5842 5841 5840 5839 5838 5838 5838 5838 5838 5837 5838 5839 5840 5841 5844 5846 5847 5848 5850 5852 5853 5854 5855 5856 5857 5859 5860 5862 5864 5865 5866 5867 5868 5869 5870
5847 5845 5844 5843 5841 5839 5838 5836 5835 5833 5832 5831 5829 5829 5829 5829 5829 5830 5830 5831 5832 5833 5835 5837 5838 5839 5842 5843 5844 5845 5846 5847 5848 5850 5852 5854 5856 5858 5860 5861 5862 5863 5864
5840 5839 5837 5835 5834 5832 5830 5828 5827 5824 5823 5822 5820 5820 5821 5820 5821 5822 5822 5823 5824 5826 5827 5828 5829 5830 5832 5834 5836 5837 5837 5838 5839 5840 5842 5845 5847 5850 5853 5854 5856 5857 5859
5834 5832 5830 5828 5826 5824 5822 5820 5818 5816 5815 5813 5812 5812 5812 5812 5812 5813 5813 5813 5815 5817 5818 5820 5821 5821 5823 5825 5826 5827 5828 5829 5830 5831 5833 5835 5838 5841 5844 5847 5849 5851 5853
5828 5826 5824 5821 5819 5816 5814 5812 5809 5808 5807 5805 5804 5804 5804 5805 5805 5805 5804 5805 5806 5808 5810 5811 5812 5813 5814 5816 5817 5818 5818 5819 5821 5822 5824 5825 5828 5831 5834 5838 5841 5843 5846
5823 5820 5818 5815 5813 5810 5807 5803 5800 5798 5797 5796 5795 5795 5795 5797 5797 5797 5797 5797 5797 5799 5801 5802 5804 5805 5806 5807 5808 5809 5810 5811 5812 5813 5815 5816 5818 5821 5824 5827 5831 5835 5838
5817 5814 5812 5809 5806 5803 5799 5795 5791 5788 5786 5785 5784 5784 5785 5786 5788 5789 5790 5790 5790 5790 5792 5793 5795 5796 5796 5797 5798 5800 5801 5802 5802 5804 5805 5807 5809 5811 5814 5817 5821 5826 5830
5810 5808 5805 5803 5800 5797 5793 5788 5783 5778 5775 5774 5773 5773 5775 5776 5777 5779 5781 5782 5782 5782 5783 5784 5785 5786 5787 5788 5789 5790 5791 5792 5793 5794 5795 5797 5799 5801 5804 5807 5811 5816 5821
5803 5801 5798 5796 5793 5790 5786 5781 5775 5770 5766 5764 5762 5762 5764 5766 5768 5769 5771 5773 5774 5774 5774 5775 5776 5777 5778 5779 5780 5781 5782 5782 5783 5785 5786 5788 5790 5791 5794 5797 5801 5806 5811
5796 5794 5791 5789 5786 5783 5779 5774 5768 5762 5758 5755 5753 5752 5753 5755 5757 5759 5761 5763 5764 5765 5765 5766 5767 5768 5769 5770 5771 5772 5773 5774 5775 5776 5778 5779 5781 5782 5784 5787 5791 5797 5802
5788 5786 5783 5781 5778 5775 5772 5767 5761 5756 5751 5747 5745 5743 5743 5745 5747 5749 5751 5754 5755 5757 5757 5758 5758 5759 5761 5762 5763 5764 5765 5766 5767 5769 5770 5771 5772 5773 5775 5778 5782 5787 5792
5779 5777 5775 5772 5770 5767 5764 5760 5755 5750 5745 5741 5738 5736 5735 5735 5737 5739 5742 5744 5746 5747 5748 5749 5750 5752 5752 5753 5754 5756 5757 5759 5760 5762 5763 5764 5764 5765 5767 5769 5773 5777 5782
5769 5767 5765 5763 5761 5758 5756 5752 5749 5744 5739 5735 5731 5729 5727 5727 5728 5730 5732 5734 5736 5738 5740 5741 5742 5743 5744 5745 5746 5748 5749 5752 5754 5755 5756 5758 5758 5759 5760 5762 5765 5769 5773
5757 5756 5755 5753 5751 5750 5747 5744 5741 5738 5734 5729 5725 5722 5720 5719 5719 5720 5722 5724 5726 5728 5730 5732 5733 5735 5736 5737 5739 5741 5743 5745 5747 5748 5750 5751 5752 5753 5755 5757 5759 5763 5766
5745 5745 5744 5743 5742 5740 5739 5737 5734 5731 5727 5723 5719 5716 5713 5711 5710 5711 5713 5715 5717 5719 5721 5723 5724 5726 5728 5730 5732 5734 5737 5739 5741 5742 5744 5745 5746 5747 5749 5751 5753 5756 5759
5732 5732 5731 5731 5731 5731 5730 5728 5726 5724 5721 5717 5713 5709 5706 5704 5703 5703 5704 5706 5708 5710 5712 5714 5716 5719 5721 5723 5726 5729 5731 5733 5734 5736 5737 5738 5739 5741 5743 5745 5747 5749 5752
5717 5718 5719 5719 5719 5720 5719 5719 5718 5716 5714 5711 5707 5703 5700 5697 5696 5697 5698 5700 5701 5703 5705 5707 5710 5712 5714 5717 5720 5723 5725 5727 5728 5730 5731 5733 5734 5736 5738 5740 5742 5744 5746
5701 5703 5704 5706 5707 5708 5709 5709 5708 5707 5706 5704 5701 5697 5694 5692 5691 5691 5692 5694 5695 5697 5699 5701 5704 5707 5709 5712 5715 5718 5720 5721 5723 5725 5727 5729 5730 5732 5734 5736 5738 5739 5741
5682 5686 5689 5692 5694 5696 5697 5698 5698 5698 5697 5696 5694 5691 5689 5687 5686 5687 5687 5688 5690 5692 5693 5695 5698 5701 5704 5706 5710 5713 5715 5718 5719 5722 5723 5725 5727 5728 5729 5730 5731 5733 5734
5661 5667 5672 5676 5679 5682 5684 5686 5687 5688 5688 5688 5687 5685 5683 5682 5682 5682 5683 5684 5685 5687 5689 5691 5692 5695 5698 5701 5705 5708 5711 5714 5716 5717 5719 5720 5722 5722 5723 5724 5725 5726 5727
5638 5646 5652 5658 5663 5667 5670 5673 5675 5677 5678 5679 5679 5678 5677 5677 5677 5678 5679 5680 5681 5682 5684 5685 5687 5690 5694 5698 5702 5705 5707 5710 5712 5714 5715 5716 5717 5717 5718 5718 5719 5720 5720
5613 5621 5631 5639 5645 5651 5655 5659 5663 5665 5667 5669 5671 5671 5670 5671 5672 5673 5674 5675 5676 5678 5679 5681 5683 5686 5690 5694 5698 5701 5704 5706 5708 5710 5711 5712 5712 5713 5713 5713 5713 5713 5713
5586 5596 5607 5617 5627 5634 5640 5645 5650 5653 5657 5659 5661 5662 5663 5664 5666 5667 5669 5670 5672 5674 5676 5678 5681 5684 5688 5691 5695 5698 5700 5702 5704 5705 5706 5708 5708 5708 5708 5708 5708 5707 5707